Location: Killarney Provincial Park Observatory
(46.0124°N, 81.4000°W)
Time: 17:58:23
(UTC-04:00)

Iridium 22 - Visible Passes

Search period start: 25 August 2016 00:00
Search period end: 04 September 2016 00:00
Orbit: 776 x 779 km, 86.4° (Epoch: 25 August)

Date Brightness Start Highest point End Pass type
(mag) Time Alt. Az. Time Alt. Az. Time Alt. Az.
25 Aug 7.7 03:26:19 10° SE 03:30:05 21° E 03:33:56 10° NNE visible
25 Aug 5.7 05:06:50 19° SSW 05:10:24 52° W 05:15:31 10° N visible
26 Aug 8.2 02:55:04 10° E 02:56:57 12° ENE 02:58:50 10° NE visible
26 Aug 5.5 04:33:50 26° S 04:36:49 89° E 04:42:04 10° N visible
27 Aug 6.2 04:00:50 27° SSE 04:03:22 50° E 04:08:25 10° NNE visible
27 Aug 6.8 05:41:20 14° WSW 05:44:24 22° WNW 05:48:25 10° NNW visible
28 Aug 7.2 03:27:48 21° ESE 03:30:01 29° E 03:34:28 10° NNE visible
28 Aug 6.1 05:08:17 25° SW 05:10:36 37° W 05:15:27 10° NNW visible
29 Aug 7.8 02:54:45 14° ESE 02:56:49 17° ENE 03:00:04 10° NE visible
29 Aug 5.5 04:35:15 42° SSW 04:36:56 66° W 04:42:09 10° N visible
30 Aug 5.6 04:02:10 51° SSE 04:03:24 72° E 04:08:37 10° N visible
30 Aug 7.2 05:42:40 13° W 05:44:44 16° WNW 05:47:54 10° NNW visible
31 Aug 6.5 03:29:05 37° ESE 03:30:00 40° E 03:34:52 10° NNE visible
31 Aug 6.5 05:09:34 24° W 05:10:51 27° WNW 05:15:17 10° NNW visible
01 Sep 7.3 02:55:58 23° E 02:56:43 23° E 03:00:47 10° NNE visible
01 Sep 5.8 04:36:28 44° WSW 04:37:06 46° W 04:42:09 10° N visible
02 Sep 8.0 02:22:51 13° E 02:23:33 14° ENE 02:26:01 10° NE visible
02 Sep 5.3 04:03:20 80° WSW 04:03:30 82° W 04:08:45 10° N visible
02 Sep 7.5 05:43:50 10° W 05:45:06 11° WNW 05:46:43 10° NW visible
03 Sep 6.0 03:30:12 57° E 03:30:12 57° E 03:35:08 10° N visible
03 Sep 6.9 05:10:41 19° W 05:11:09 20° WNW 05:14:55 10° NNW visible
